Home > Weather > Cumberland County > Past weeks

Flag for Canada Past Weather in Cumberland County, Nova Scotia, Canada — Yesterday and Last 2 Weeks

Now
80 °F

Warm.


Feels Like: 80 °F
Forecast: 56 / 77 °F
Wind: 10 mph from Southwest

Location: Kentville

Current Time: Jun 28, 2016 at 1:59:50 PM

Latest Report: Jun 28, 2016 at 1:00 PM


Visibility: N/A

Pressure: 30.07 "Hg

Humidity: 44%

Dew Point: 56 °F

Location of Cumberland CountyLocation

Past Weather in Cumberland County — Graph

°F

Cumberland County Temperature Yesterday

Maximum temperature yesterday: 86 °F (at 4:00 PM)
Minimum temperature yesterday: 53 °F (at 4:00 AM)
Average temperature yesterday: 72 °F

High & Low Weather Summary for the Past Weeks

 TemperatureHumidityPressure
High86 °F (Jun 27, 4:00 PM)98% (Jun 22, 6:00 AM)30.28 "Hg (Jun 22, 6:00 AM)
Low40 °F (Jun 18, 4:00 AM)20% (Jun 19, 12:00 PM)29.37 "Hg (Jun 13, 4:00 PM)
Average62 °F60%29.93 "Hg
* Reported Jun 13 12:00 PM — Jun 28 12:00 PM, Cumberland County, Weather by CustomWeather, © 2016

Note: Actual official high and low records may vary slightly from our data, if they occured in-between our weather recording intervals... More about our weather records

Advertising

Cumberland County Weather History for the Previous 24 Hours

Scroll right to see more
 ConditionsComfort  
Time TempWeatherWind HumidityBarometerVisibility
12:00 PM
Tue, Jun 28
77 °FWarm.9 mph52%30.07 "HgN/A
11:00 AM76 °FMild.7 mph57%30.07 "HgN/A
10:00 AM74 °FMild.8 mph60%30.07 "HgN/A
9:00 AM70 °FMild.6 mph69%30.08 "HgN/A
8:00 AM65 °FMild.7 mph76%30.08 "HgN/A
7:00 AM62 °FMild.7 mph81%30.08 "HgN/A
6:00 AM60 °FCool.5 mph86%30.08 "HgN/A
5:00 AM59 °FCool.8 mph86%30.07 "HgN/A
4:00 AM58 °FCool.5 mph84%30.08 "HgN/A
3:00 AM60 °FCool.7 mph78%30.08 "HgN/A
1:00 AM62 °FCool.7 mph74%30.08 "HgN/A
12:00 AM64 °FMild.6 mph59%30.08 "HgN/A
9:00 PM
Mon, Jun 27
73 °FMild.9 mph42%30.07 "HgN/A
8:00 PM77 °FPleasantly warm.8 mph37%30.06 "HgN/A
7:00 PM80 °FPleasantly warm.10 mph33%30.04 "HgN/A
6:00 PM83 °FPleasantly warm.9 mph29%30.03 "HgN/A
5:00 PM86 °FPleasantly warm.10 mph24%30.02 "HgN/A
4:00 PM86 °FPleasantly warm.9 mph23%30.02 "HgN/A
3:00 PM86 °FPleasantly warm.12 mph22%30.03 "HgN/A
2:00 PM86 °FPleasantly warm.9 mph26%30.04 "HgN/A
1:00 PM84 °FPleasantly warm.10 mph27%30.05 "HgN/A
Weather by CustomWeather, © 2016

See weather overviewHow to use our weather pages